Regional Weather Roundup
Issued by NWS Little Rock, AR

Home | Current Version | Previous Version | Graphics & Text | Print | Product List | Glossary On
Versions: 1 2 3 4 5 6 7 8 9 10 11 12 13 14 15 16 17 18 19 20 21 22 23 24 25 26 27 28 29 30 31 32 33 34 35 36 37 38 39 40 41 42 43 44 45 46 47 48 49 50
000
ASUS44 KLZK 262005
RWRLZK

WEATHER ROUNDUP FOR ARKANSAS
NATIONAL WEATHER SERVICE LITTLE ROCK AR
300 PM CDT SUN APR 26 2015

NOTE: "FAIR" INDICATES FEW OR NO CLOUDS BELOW 12,000 FEET WITH NO
SIGNIFICANT WEATHER AND/OR OBSTRUCTIONS TO VISIBILITY.

ARZ001-003-010-029-262100-
NORTHWEST ARKANSAS

CITY           SKY/WX    TMP DP  RH WIND       PRES   REMARKS
FAYETTEVILLE   SUNNY     69  57  65 NE9G20    29.81F
FORT SMITH     SUNNY     78  59  51 E10G20    29.74F
HARRISON       CLOUDY    59  49  69 E10       29.88F
BENTONVILLE    SUNNY    N/A N/A N/A E13G18    29.83F
ROGERS         MOSUNNY   64  52  63 NE14G22   29.84F
SILOAM SPGS    SUNNY     66  54  63 NE10G16   29.83S
HIGHFILL       SUNNY     67  53  61 E13       29.82F
SPRINGDALE     MOSUNNY   66  54  63 MISG      29.85F
$$

ARZ004-005-016-262100-
NORTH CENTRAL ARKANSAS

CITY           SKY/WX    TMP DP  RH WIND       PRES   REMARKS
BATESVILLE     CLOUDY    61  50  67 N8        29.89R
FLIPPIN        CLOUDY    59  48  67 N12       29.88S
MTN HOME       CLOUDY    55  47  74 NE8       29.89S
$$

ARZ040-041-262100-
WEST CENTRAL ARKANSAS

CITY           SKY/WX    TMP DP  RH WIND       PRES   REMARKS
MENA           SUNNY     82  63  51 NE10G16   29.74F
MOUNT IDA      SUNNY     78  60  53 VRB5      29.75F
$$

ARZ009-017-025-026-028-262100-
NORTHEAST ARKANSAS

CITY           SKY/WX    TMP DP  RH WIND       PRES   REMARKS
CORNING          N/A     57  46  67 N6        29.90S
JONESBORO      CLOUDY    56  50  80 NE10      29.89R
NEWPORT        CLOUDY    60  51  72 NE15      29.90R
WALNUT RIDGE   CLOUDY    57  46  67 N9        29.90R
BLYTHEVILLE    CLOUDY    58  50  75 N12       29.88S
$$

ARZ022-023-033-042-044-262100-
CENTRAL ARKANSAS

CITY           SKY/WX    TMP DP  RH WIND       PRES   REMARKS
LITTLE ROCK    CLOUDY    68  56  65 NE12      29.84S
N LITTLE ROCK  CLOUDY    69  60  75 E8        29.84S
JACKSONVILLE   CLOUDY    67  56  67 NE12      29.84S
SEARCY         CLOUDY    64  54  69 NE12      29.88S
HOT SPRINGS    SUNNY     78  59  51 E9        29.78F
RUSSELLVILLE   PTSUNNY   72  56  57 E9        29.81F
CLINTON        PTSUNNY   64  54  68 N5        29.87S
$$

ARZ036-262100-
EAST ARKANSAS

CITY           SKY/WX    TMP DP  RH WIND       PRES   REMARKS
WEST MEMPHIS   CLOUDY    60  53  77 N14       29.85S
$$

ARZ050-053-066-070-073-262100-
SOUTHWEST ARKANSAS

CITY           SKY/WX    TMP DP  RH WIND       PRES   REMARKS
ARKADELPHIA    FAIR      80  64  58 VRB7      29.76F
CAMDEN         MOSUNNY   86  57  37 NE5       29.74S HX  85
TEXARKANA      SUNNY     83  64  52 E8        29.73R
EL DORADO      MOSUNNY   86  58  38 CALM      29.73F HX  85
DE QUEEN       SUNNY     82  63  52 VRB7      29.71S
$$

ARZ056-057-069-262100-
SOUTHEAST ARKANSAS

CITY           SKY/WX    TMP DP  RH WIND       PRES   REMARKS
PINE BLUFF     CLOUDY    71  61  70 NE13      29.82R
STUTTGART      CLOUDY    66  55  68 NE15      29.84S
MONTICELLO     SUNNY     79  63  57 NE7       29.77F

$$





USA.gov is the U.S. government's official web portal to all federal, state and local government web resources and services.